Location: Follega
(52.8850°N, 5.7362°E)
Time: 13:07:24
(UTC+00:00)

Cosmos 1174 - Pass Details

Date: 01 June 2020
Orbit: 367 x 1151 km, 66.1° (Epoch: 11 July)

Event Time Altitude Azimuth Distance (km) Brightness Sun altitude
Exits shadow 23:06:46 29° 194° (SSW) 829 4.2 -14.6°
Maximum altitude 23:08:15 60° 125° (SE) 535 3.5 -14.7°
Drops below altitude 10° 23:12:06 10° 46° (NE) 1,791 7.0 -14.7°
Sets 23:14:34 0° 43° (NE) 2,822 8.1 -14.8°
